Theta_e
315 313 317 317 321 319 322 330 329 333 330 325 326 328 327 327 330 330 329 328 328 328 329 333 335 334 333 335 341 344 339 342 345 344 345 338 335 338 336 334 329 319 320 326 327 330 331 333 334 334 335 331 327 330 332 331 331 333 333 333 333 334 334 332 331 334 334 332 331 330 332 332 332 332 332 332 332 332 332 332 333 333 333 333 334 334 333 333 332 329 327 328 329 330 330 330 329
315 315 318 318 322 316 323 333 332 341 338 322 324 330 326 327 330 331 335 333 330 332 334 337 341 337 334 335 337 339 336 337 337 337 338 335 337 337 335 330 320 316 320 326 329 330 330 332 332 333 333 329 329 332 332 329 329 331 331 332 332 332 333 332 330 332 333 332 331 331 332 332 332 332 332 332 332 332 332 332 332 333 333 333 334 334 333 333 333 330 328 328 329 330 330 330 329
315 316 319 320 321 319 327 331 329 336 332 322 329 332 324 328 334 335 338 332 331 333 334 337 341 337 335 337 334 336 338 335 334 335 337 337 337 335 333 323 316 317 319 326 330 330 330 330 330 332 332 330 329 331 331 330 330 331 332 333 332 332 333 333 331 330 330 330 331 331 331 331 332 332 332 332 332 331 331 332 332 333 333 333 333 333 333 332 332 331 330 329 329 330 330 330 329
315 319 319 320 321 328 339 332 334 334 324 325 328 328 328 334 338 334 332 331 332 330 331 339 341 332 333 342 335 335 339 335 336 337 338 337 336 336 330 319 318 318 318 327 330 329 330 331 332 332 332 330 329 330 331 331 331 331 332 332 331 332 334 334 332 330 328 328 331 332 331 332 332 332 332 332 331 331 331 332 332 333 332 332 333 333 333 332 332 331 330 329 329 330 330 329 327
315 320 318 320 324 330 336 327 332 331 323 329 323 325 335 336 335 331 328 329 330 326 328 339 340 330 331 339 334 337 339 336 337 337 338 337 337 335 327 319 318 318 320 327 329 329 330 332 333 331 331 329 328 330 332 331 331 332 331 330 332 333 334 334 332 330 330 331 333 331 330 332 332 331 332 332 332 331 331 331 332 332 332 332 332 332 332 332 332 330 330 329 329 329 328 327 326
317 320 318 319 319 321 328 321 324 328 331 333 321 325 335 332 329 331 329 325 328 326 327 337 339 336 337 337 333 336 336 336 338 337 338 337 337 334 324 318 319 320 322 327 329 330 331 332 331 330 331 327 328 331 332 331 331 331 330 330 332 333 333 334 332 331 330 332 332 329 330 332 331 331 331 330 330 330 330 330 331 331 331 331 331 332 332 333 331 330 330 329 329 328 326 325 325
317 318 322 322 319 322 331 327 330 336 330 325 322 326 331 329 327 331 329 323 327 326 330 338 336 339 339 334 335 335 333 335 336 337 337 337 337 330 320 318 320 321 323 327 329 330 331 332 331 331 330 326 327 332 332 331 331 331 331 329 330 332 333 333 333 331 330 331 330 328 330 331 330 331 330 329 330 330 329 329 330 331 330 330 331 332 332 332 331 330 330 329 328 326 324 324 325
319 321 326 328 326 329 333 328 333 337 322 318 322 327 330 328 327 329 329 327 327 328 335 339 334 340 337 332 340 335 331 334 336 337 336 338 336 326 319 318 320 321 323 325 326 330 331 332 334 333 330 326 326 331 332 331 330 331 331 329 329 331 332 332 332 332 331 330 329 329 329 329 330 331 329 329 330 330 330 329 330 330 329 329 331 331 331 331 330 329 329 329 326 325 324 324 324
319 320 325 328 325 328 332 327 325 327 324 322 321 326 329 325 326 327 330 329 328 334 338 337 333 332 336 338 343 334 331 335 336 337 337 338 332 322 319 319 318 320 322 323 326 330 331 333 334 333 331 328 326 329 331 331 331 331 330 330 329 330 331 331 331 331 331 330 330 330 329 328 330 330 329 330 330 329 329 329 329 329 329 329 330 330 330 331 330 329 329 328 326 325 325 324 324
318 320 325 328 327 321 323 328 327 325 324 324 321 325 329 325 326 325 329 328 329 341 336 334 337 332 338 346 341 333 333 336 336 337 338 337 327 319 319 319 318 319 322 323 326 330 331 333 333 333 331 329 329 330 331 331 330 330 330 329 329 329 330 330 330 330 330 330 329 329 329 329 329 329 329 330 329 328 328 328 328 329 329 329 329 330 330 330 330 330 329 327 326 326 326 325 325
323 327 330 329 328 321 320 330 338 336 325 324 324 325 328 326 326 325 328 327 328 337 333 332 341 341 342 343 337 333 333 336 337 337 338 336 324 318 319 319 318 318 321 322 325 329 330 332 332 333 332 331 331 331 330 329 330 330 329 328 326 327 329 329 329 329 329 328 328 329 328 328 328 329 329 328 327 328 329 329 328 328 328 328 329 330 329 330 330 330 329 327 326 326 326 325 325
321 331 339 332 327 325 325 330 339 345 334 327 326 324 326 325 324 326 328 328 330 334 334 332 336 344 347 343 338 333 333 337 337 337 338 334 322 318 319 319 319 319 321 322 324 327 327 330 331 331 332 332 332 332 329 330 331 329 328 328 326 325 326 328 328 327 328 326 327 330 329 326 326 328 329 327 327 329 329 329 328 328 327 328 329 329 329 329 330 329 328 327 327 326 325 325 324
327 334 336 325 324 325 325 327 331 335 333 331 326 323 324 324 324 328 329 328 331 334 332 330 334 346 349 342 338 332 333 337 336 338 338 332 321 318 320 319 319 320 321 322 324 325 326 327 329 330 331 331 330 331 331 331 331 329 327 327 326 324 323 327 328 327 326 326 328 330 330 327 326 328 328 326 327 328 328 328 327 327 327 328 329 328 329 329 329 328 327 327 326 326 325 325 324
329 337 333 322 322 327 327 325 324 324 327 329 323 322 322 323 325 328 329 329 332 332 326 326 333 343 339 336 341 336 334 336 336 338 337 331 320 319 320 319 319 320 321 322 323 325 325 326 327 329 330 329 328 330 332 331 331 330 328 326 325 323 322 325 327 325 324 326 327 329 329 328 327 328 328 327 327 326 326 326 327 327 327 327 327 328 328 328 328 327 327 327 326 325 325 325 324
322 337 339 329 322 325 325 320 323 325 328 328 318 322 324 320 323 327 328 330 330 325 324 327 329 329 329 338 347 338 333 336 336 337 335 329 320 319 320 319 319 320 322 323 323 324 324 325 325 326 328 328 327 328 331 332 331 330 329 326 324 322 321 321 323 322 323 326 327 328 328 327 328 328 327 328 327 325 324 324 325 326 327 327 327 328 327 327 327 327 327 326 325 325 325 325 324
325 338 334 329 323 319 321 320 323 325 328 326 315 321 326 318 320 325 322 326 330 323 328 332 325 326 331 337 337 332 334 336 335 336 333 329 323 321 320 321 321 322 324 323 323 323 324 324 323 323 325 326 327 328 330 331 332 331 330 327 323 321 320 320 321 320 321 324 327 327 326 325 326 326 326 327 326 324 323 322 323 325 327 327 327 327 327 327 327 327 326 326 325 325 325 325 325
323 331 330 327 325 320 320 322 322 322 327 323 314 320 329 322 316 317 317 326 337 330 332 334 325 329 334 332 328 329 335 336 335 335 332 330 328 326 325 324 324 326 327 325 325 324 324 324 322 322 323 324 325 327 330 331 331 331 330 327 324 321 319 319 319 319 319 322 325 325 323 322 322 323 324 325 324 322 321 321 321 323 325 325 326 326 327 327 327 327 326 326 325 325 325 324 324
321 327 328 326 327 325 325 325 321 320 322 319 315 319 327 325 317 315 319 330 338 332 332 336 331 331 331 329 329 331 335 335 334 334 332 332 330 329 327 326 326 326 326 326 325 325 325 325 323 322 322 322 322 323 327 329 329 329 327 324 323 321 319 318 317 317 318 319 320 320 319 318 318 318 319 321 320 319 319 319 320 321 322 323 323 325 326 326 326 326 326 326 325 325 325 324 324
329 327 324 327 331 327 325 324 320 319 319 319 318 317 321 323 319 317 320 328 334 334 334 337 338 335 331 329 331 333 333 334 334 333 333 332 332 330 328 326 326 325 325 324 324 324 324 326 324 322 322 322 321 321 323 324 325 324 323 321 321 320 319 318 316 314 315 316 317 317 316 316 316 315 315 316 315 315 317 318 318 318 319 320 321 324 324 325 325 325 326 325 325 325 324 324 324
326 323 322 328 327 323 323 322 318 318 318 318 319 317 318 320 318 318 323 330 334 336 334 336 340 341 337 331 330 332 333 333 334 334 333 332 333 331 329 327 325 324 324 323 322 322 323 324 324 322 321 321 321 321 321 322 322 321 321 320 320 320 319 319 318 315 313 314 316 316 315 314 314 313 313 313 312 314 317 317 317 316 317 318 320 322 323 324 324 324 325 324 324 324 324 324 324
317 318 324 323 317 318 319 316 315 317 315 315 320 319 317 318 316 319 326 330 332 332 330 332 339 344 339 331 329 331 332 333 333 334 334 333 333 331 330 328 326 324 323 322 321 321 322 322 323 323 322 321 321 321 321 321 322 322 321 321 320 320 320 320 319 319 318 315 315 316 316 315 314 313 312 311 311 313 316 316 316 316 316 317 319 321 322 323 324 324 324 324 324 324 324 324 323
313 318 326 321 313 315 314 313 314 315 314 314 319 319 318 317 315 322 327 327 327 325 325 328 333 340 337 330 330 331 331 332 333 334 334 333 333 332 331 329 327 324 323 323 321 321 321 321 322 323 322 322 322 321 321 322 322 322 322 321 321 321 321 321 320 322 322 318 316 319 319 320 319 317 316 314 312 311 312 314 314 315 315 316 317 319 321 322 323 324 324 324 324 324 324 323 324
313 320 326 320 310 313 313 311 311 313 314 316 320 318 317 317 316 321 325 323 320 318 319 325 331 333 333 330 330 331 331 332 332 333 333 333 333 332 331 330 329 326 324 322 321 321 321 321 321 322 323 323 322 322 321 321 322 322 322 322 322 322 322 322 322 323 324 321 320 321 322 323 323 321 321 319 315 311 309 310 310 312 314 315 315 316 318 321 323 323 323 323 323 323 322 322 323
317 322 324 318 310 312 312 310 310 311 315 317 318 315 316 319 318 318 322 322 320 320 320 322 328 328 330 331 330 331 331 331 332 333 333 333 333 333 332 331 330 328 325 323 322 321 321 321 321 321 322 322 322 322 322 322 322 322 322 322 322 323 323 322 322 323 324 323 322 323 323 324 324 323 324 322 318 315 312 310 309 309 310 312 314 315 316 318 321 321 321 321 321 321 322 322 322
322 324 321 316 313 313 311 311 312 312 315 315 314 315 317 318 316 317 321 320 321 327 326 326 328 329 330 331 331 330 330 331 331 332 333 333 333 333 333 332 331 329 327 325 323 322 322 322 322 322 322 322 322 322 322 322 322 322 322 322 322 322 322 322 323 323 323 324 323 323 324 324 324 324 325 324 322 319 318 316 312 308 308 309 311 313 315 316 318 319 319 320 320 320 321 321 321
321 322 321 318 315 313 311 314 315 314 315 313 314 317 315 312 313 318 318 318 325 333 334 333 332 332 333 332 331 330 330 330 331 331 332 332 333 333 333 333 332 330 329 327 325 324 324 323 323 323 323 323 322 322 323 323 322 323 323 322 322 322 322 322 323 323 323 323 323 323 324 323 324 325 325 325 325 323 321 321 317 311 310 310 309 311 313 315 317 317 317 318 319 318 318 319 320
317 318 320 320 316 314 312 314 315 315 314 313 315 316 314 311 313 319 316 319 332 343 340 333 333 335 333 332 332 330 330 330 331 331 331 331 332 332 333 333 332 332 331 330 329 328 326 325 325 325 325 324 323 324 324 324 324 323 324 323 323 323 323 323 323 323 323 323 324 324 324 324 324 325 326 326 326 325 323 323 322 317 316 316 315 314 313 314 316 316 315 315 315 314 315 316 316
314 314 316 317 317 315 314 314 315 314 313 313 314 314 314 311 315 319 315 318 329 345 343 333 333 334 331 332 332 330 330 330 331 330 330 330 331 332 332 332 332 332 331 331 331 331 329 328 328 328 328 327 326 325 325 326 326 326 325 324 324 324 324 324 323 324 324 324 324 324 324 325 325 325 326 326 326 326 324 324 324 323 321 321 320 319 318 317 316 316 315 314 311 311 312 313 314
314 317 318 318 319 317 315 314 315 314 313 314 314 315 315 314 317 316 315 318 325 340 343 334 333 333 331 332 331 330 330 330 331 330 330 330 331 332 332 332 332 332 331 331 332 333 332 331 331 330 330 330 329 328 328 328 329 329 328 328 327 326 325 325 324 325 324 324 324 324 324 325 325 326 326 326 326 326 325 325 325 325 325 324 323 322 322 321 319 319 318 316 314 312 313 315 316
316 319 321 322 321 318 315 313 312 313 313 314 313 316 321 319 317 314 318 324 327 338 342 334 332 332 331 331 331 331 329 329 330 329 331 330 331 332 332 333 332 332 332 332 333 333 334 333 333 332 332 332 332 332 331 331 331 331 331 331 331 330 329 327 327 326 326 325 325 324 324 325 326 326 326 327 327 326 326 326 326 326 326 325 325 324 324 323 322 322 321 320 319 317 317 317 318
316 318 321 323 323 321 318 315 313 313 312 313 312 316 322 320 317 313 318 326 328 333 340 334 333 332 331 331 330 331 328 328 329 329 331 330 331 331 331 332 332 333 333 332 333 334 334 334 333 334 333 334 334 334 334 333 334 333 333 332 333 333 332 331 330 329 328 327 326 325 325 326 327 327 327 327 327 327 326 326 327 326 326 326 326 325 325 325 324 324 323 322 322 321 321 320 320
316 322 326 321 320 323 321 316 314 314 312 312 312 315 319 316 317 312 311 322 328 326 333 333 333 331 330 331 329 331 329 327 328 329 330 330 330 331 331 332 332 332 333 334 334 334 335 334 334 334 334 335 334 335 335 335 335 335 334 333 333 333 333 333 332 331 330 329 328 326 326 327 327 327 327 327 327 327 327 326 326 326 327 327 326 326 326 325 325 326 325 324 324 324 324 323 322
318 324 326 322 321 323 321 316 314 314 313 313 312 315 320 316 313 311 310 322 330 324 328 331 331 331 329 330 330 330 330 328 328 327 329 330 330 330 331 331 332 332 333 333 334 334 335 334 334 334 334 335 335 335 335 335 336 336 336 335 334 334 334 334 333 332 331 330 330 329 329 328 328 328 328 328 327 327 327 327 327 327 327 327 327 326 326 326 326 326 326 325 325 325 324 324 323
320 318 319 321 321 320 320 317 314 313 313 314 314 313 318 318 313 311 312 320 329 326 326 328 329 329 327 328 329 329 329 329 328 327 328 329 329 330 331 330 331 332 332 333 333 333 334 334 334 334 334 334 334 335 335 336 336 336 336 336 335 335 335 334 334 334 332 332 332 331 331 330 329 329 328 328 328 328 328 328 327 327 327 326 326 326 326 326 326 326 326 325 324 324 324 324 323
323 318 316 318 318 317 318 316 313 312 313 313 315 314 317 319 314 312 313 317 328 330 322 321 325 328 327 326 327 328 328 329 327 327 328 329 329 329 329 330 330 331 331 332 332 333 333 334 334 334 334 334 334 334 335 335 336 336 336 336 336 336 335 335 334 334 334 333 332 332 332 331 331 330 329 329 328 328 328 328 328 327 327 327 326 326 326 326 326 326 325 323 323 323 323 323 323
324 318 316 317 317 317 315 314 312 311 312 313 314 314 316 318 314 312 313 313 321 323 318 317 318 321 324 325 325 325 326 328 326 326 327 327 328 329 329 329 330 330 330 330 331 332 332 332 333 333 334 334 334 334 335 335 335 335 335 335 336 336 336 335 335 335 335 334 333 333 332 332 332 331 331 330 329 329 328 328 328 328 327 327 326 327 327 327 326 326 325 324 323 322 323 324 323
318 315 315 316 316 316 313 313 313 311 312 314 314 313 313 315 314 312 312 310 314 316 315 316 315 314 317 320 321 322 324 324 323 323 325 326 327 328 328 329 329 329 329 330 330 330 331 331 331 332 333 333 333 334 334 335 334 334 334 334 335 335 336 335 335 335 335 335 334 333 333 333 332 332 332 331 330 329 329 329 328 328 328 327 326 326 326 326 326 326 326 325 324 323 323 323 323
315 314 315 315 314 316 313 311 312 311 313 316 315 312 312 313 314 312 311 311 314 315 315 315 314 312 311 313 317 318 318 318 317 318 320 323 325 326 327 328 328 329 329 329 330 330 330 331 331 332 332 332 332 333 333 333 334 334 333 334 334 334 334 334 335 335 334 334 334 334 334 333 332 332 332 331 331 330 329 329 329 329 328 327 326 325 325 326 326 326 326 324 323 323 323 323 323
315 315 315 315 315 316 315 312 312 311 312 317 315 312 312 313 312 312 311 312 313 314 314 314 314 313 311 311 312 313 314 315 315 314 314 317 321 322 324 326 327 328 329 329 329 330 330 330 330 330 331 331 331 331 332 332 332 333 333 333 333 333 333 333 333 333 333 334 334 334 334 333 333 332 332 332 331 331 330 330 330 330 328 326 326 326 326 325 325 325 325 324 323 322 322 321 322
315 315 315 316 315 315 317 314 311 310 311 313 313 312 312 311 311 312 311 311 312 312 312 313 312 313 313 311 310 310 311 313 314 313 312 312 316 319 321 323 325 327 328 328 329 329 329 330 330 330 330 330 330 330 330 331 331 331 332 333 333 333 333 332 332 332 333 333 334 334 334 334 333 333 332 331 331 330 330 330 330 331 329 328 327 327 326 326 325 324 323 323 323 322 322 321 322
315 315 315 317 316 314 316 315 312 314 313 310 311 314 315 315 313 313 313 311 310 310 310 311 312 312 312 311 310 310 310 311 312 313 312 310 311 316 318 321 323 325 326 327 328 328 329 329 329 330 330 330 330 330 330 331 331 331 332 332 332 333 332 332 332 332 332 332 333 333 333 334 333 333 333 332 331 330 329 329 328 329 329 329 328 327 327 326 325 325 324 324 324 324 323 323 322
317 317 316 316 317 314 313 316 316 318 319 313 311 316 322 325 320 315 314 313 312 310 309 311 311 310 310 310 310 310 310 310 310 310 310 308 309 312 315 318 321 323 325 325 327 327 328 328 329 329 329 330 330 330 331 330 330 330 331 331 331 331 332 332 331 332 332 332 332 332 332 332 332 333 333 333 333 332 330 329 328 328 329 329 329 328 327 326 325 325 325 325 325 325 324 323 322
318 319 316 313 315 313 312 315 315 318 321 313 310 315 323 325 320 317 316 315 315 312 310 311 310 309 310 310 310 310 310 310 309 309 308 307 307 308 311 315 318 321 322 323 325 326 327 327 328 329 328 329 330 330 331 331 330 330 330 331 331 331 331 331 331 331 331 331 331 331 331 331 331 331 331 331 332 332 332 331 330 330 330 330 330 329 328 327 326 326 325 325 326 325 324 322 322
320 318 316 314 312 314 315 315 315 320 319 314 312 315 317 316 315 318 316 314 315 313 312 312 310 310 310 310 309 309 309 310 310 310 309 306 305 306 309 311 314 317 320 322 324 325 326 327 327 328 328 329 329 329 330 331 331 330 330 331 331 331 331 331 331 330 331 331 331 330 330 330 330 329 329 328 329 331 332 332 331 330 330 330 329 328 328 327 326 326 326 326 326 323 322 322 322
320 317 317 316 313 315 317 315 316 316 314 315 315 313 314 318 319 319 314 312 314 316 315 314 313 312 311 310 309 309 309 309 309 310 309 306 304 305 307 309 311 313 317 320 323 324 326 326 327 328 328 329 329 329 330 330 331 331 330 330 330 331 331 331 331 330 331 331 330 330 330 330 329 328 328 327 327 328 330 331 330 330 330 331 330 328 327 327 325 325 325 325 325 323 322 322 322
316 316 318 319 320 321 317 317 317 312 311 316 317 314 314 320 324 318 313 312 314 317 318 316 315 314 312 310 309 309 308 309 309 309 307 304 305 306 306 307 308 310 314 318 321 324 325 326 327 328 328 329 329 330 330 331 331 331 330 331 331 331 331 331 331 331 331 330 330 330 330 330 330 329 328 328 328 328 328 329 329 329 330 330 331 329 327 326 324 323 322 323 324 324 322 321 321
313 316 318 319 324 323 319 322 319 312 314 316 315 316 313 317 324 318 314 315 316 317 317 315 314 316 315 312 311 311 309 309 309 308 305 303 304 305 305 305 307 308 310 315 319 322 325 326 327 328 328 328 329 330 330 331 331 331 331 331 331 331 331 331 330 330 330 330 330 330 330 330 329 329 329 328 329 328 327 327 327 328 329 329 330 329 326 326 326 325 324 324 325 324 322 321 321
315 319 319 317 322 320 317 321 316 313 319 317 314 315 312 314 320 315 313 315 314 314 316 316 317 319 318 315 314 315 313 311 311 310 307 304 303 303 303 304 305 306 307 311 316 320 323 325 326 327 328 328 329 329 330 330 331 331 331 331 331 331 331 331 331 330 330 330 330 330 329 329 329 329 329 329 328 328 327 327 327 327 328 328 328 327 327 326 326 325 325 325 326 325 323 322 323
315 318 317 317 319 318 317 319 316 317 319 313 311 313 311 313 315 314 315 314 313 313 313 316 317 317 318 314 312 314 313 313 313 312 310 309 306 302 302 303 304 304 306 308 312 317 321 324 325 326 327 328 329 329 330 330 330 331 331 331 331 331 331 331 331 330 330 330 330 330 329 329 329 329 328 328 327 326 327 327 327 327 328 328 327 327 327 326 325 324 325 325 325 325 325 323 322
314 314 314 317 318 319 319 317 317 320 318 312 310 311 313 316 316 315 315 313 314 313 311 312 312 312 313 309 308 310 310 310 310 310 312 311 306 301 301 303 303 304 305 306 309 313 318 322 324 326 326 327 328 329 329 330 330 330 331 331 331 331 331 331 330 330 330 330 330 330 330 330 329 329 329 328 327 326 327 327 327 327 328 328 328 327 325 325 325 324 324 324 324 324 323 322 321
313 315 317 318 318 321 322 320 320 321 319 312 309 312 320 322 317 314 313 313 314 313 311 310 309 309 308 306 309 311 311 310 309 311 314 311 304 301 303 303 304 305 305 305 307 311 316 320 322 324 325 326 327 328 329 329 330 330 330 330 330 330 330 330 330 330 330 330 330 330 330 330 330 329 329 327 326 327 327 327 327 327 327 328 328 327 325 324 324 323 323 323 323 322 321 320 320
313 317 317 315 319 325 323 319 320 321 319 314 311 316 323 321 315 312 311 312 313 312 312 312 313 312 309 312 316 315 314 312 311 314 317 312 302 302 305 305 305 307 306 306 307 308 313 317 320 323 324 326 326 327 328 328 329 329 329 329 329 330 330 329 330 330 330 330 330 330 330 330 330 329 328 327 327 327 327 328 328 327 328 328 327 326 325 323 322 322 322 321 321 320 320 319 318
312 313 314 312 317 326 322 314 312 313 316 316 313 315 319 317 315 313 312 313 314 315 314 314 315 313 312 317 319 316 315 314 313 315 317 312 303 303 306 306 307 308 308 308 308 308 310 313 317 321 322 324 325 326 327 327 328 328 328 329 329 329 329 329 330 330 330 330 330 330 330 330 329 328 328 327 327 328 328 328 327 326 326 326 326 326 324 322 320 319 319 319 319 319 319 318 316
312 313 314 313 314 320 322 318 313 311 315 320 316 314 316 317 317 317 314 312 314 314 312 311 314 316 317 320 320 317 315 313 315 316 315 310 302 302 306 308 309 310 309 309 309 309 309 310 315 318 320 323 323 324 326 326 327 328 328 328 328 329 329 329 330 330 330 330 329 330 329 329 329 328 328 327 327 327 327 326 325 325 324 324 325 325 323 320 319 318 316 315 316 316 315 315 314
313 317 316 315 316 316 317 318 317 314 313 320 321 315 313 314 317 318 314 313 315 314 312 313 313 317 320 321 321 318 313 314 317 317 319 315 303 301 307 309 311 312 311 311 310 309 309 309 311 314 317 320 322 323 324 325 326 326 327 328 328 329 329 329 329 329 329 329 329 329 329 329 328 328 327 327 327 326 325 325 324 323 323 323 324 323 321 320 319 318 315 313 314 315 314 314 314
311 313 312 313 317 317 315 315 316 317 315 319 323 320 316 314 316 317 314 314 315 314 314 316 317 320 323 321 321 319 316 317 318 316 322 319 304 302 308 310 312 314 313 313 312 311 311 310 310 311 313 315 318 321 322 323 325 325 326 327 327 327 328 328 329 328 328 329 328 329 328 328 328 327 327 326 326 325 324 324 323 323 322 322 321 321 320 319 320 318 315 314 315 315 315 314 312
310 311 311 310 311 314 316 314 313 318 320 321 320 318 321 321 315 313 314 313 313 314 315 317 322 326 326 324 323 321 318 320 319 316 321 318 305 304 310 311 313 315 314 315 314 313 312 310 310 310 310 311 313 316 319 321 323 324 324 325 326 326 327 327 327 328 328 328 328 328 328 328 327 326 326 325 324 324 323 323 322 321 321 321 320 320 320 320 319 318 315 313 314 314 313 311 310
313 313 312 312 312 315 316 313 312 314 317 322 318 313 321 326 314 309 312 312 311 314 313 315 322 326 327 328 325 320 318 321 320 317 320 316 304 305 311 312 313 315 315 315 315 314 313 312 310 310 309 310 310 312 314 317 319 321 323 323 325 325 326 326 326 327 327 327 327 327 327 327 326 325 324 324 323 323 322 322 321 320 320 320 320 320 320 319 318 316 314 313 313 312 310 308 307
Wind_Speed
10 10 8 6 7 5 4 5 2 3 3 2 2 1 2 2 1 2 2 2 2 1 2 2 4 5 2 3 6 6 3 4 5 4 3 3 13 19 15 12 15 18 18 19 20 19 16 13 11 9 10 13 14 14 13 12 11 11 13 13 13 12 12 14 14 14 14 14 16 17 17 17 18 18 18 18 18 18 18 19 19 18 18 19 19 19 19 18 18 19 19 20 20 19 20 19 20
11 9 7 4 6 5 1 3 3 3 5 1 2 2 3 2 1 5 6 5 3 2 2 5 7 5 3 5 6 4 2 0 4 4 1 8 17 15 12 14 17 18 19 21 20 18 15 13 12 9 11 14 16 15 13 12 12 11 11 12 12 12 12 13 14 14 13 14 16 16 16 16 17 17 17 17 18 18 18 18 18 18 18 19 19 18 18 18 18 18 18 19 19 18 18 19 19
11 8 7 4 4 5 2 4 2 1 4 1 4 3 1 1 5 6 7 5 4 4 3 4 5 3 4 5 3 3 1 0 3 2 4 14 14 12 16 16 17 18 18 21 20 18 17 15 12 10 12 14 16 16 13 12 12 11 11 11 12 12 11 11 13 13 12 14 15 15 15 16 16 16 17 16 16 16 17 17 17 17 18 18 18 18 17 17 17 17 18 18 18 17 18 17 17
9 8 8 3 2 4 3 4 2 4 1 2 3 5 2 4 7 5 5 5 7 4 1 2 3 1 3 3 1 2 1 1 4 3 6 14 13 16 20 18 18 17 19 21 20 19 18 15 12 11 13 14 17 17 14 12 12 12 12 12 11 11 10 11 13 13 14 14 13 14 15 15 15 16 16 16 16 16 16 16 16 16 16 17 17 17 17 16 16 17 17 17 17 17 17 16 16
6 7 7 2 2 2 3 3 2 3 1 4 0 5 5 5 6 4 4 5 6 1 1 2 2 1 1 2 1 1 2 2 5 4 9 14 16 21 20 19 19 18 20 21 21 21 17 14 12 11 13 14 17 17 14 13 13 12 11 11 10 9 9 11 14 14 15 14 13 14 14 14 14 14 14 15 15 15 15 15 15 16 16 16 17 17 16 16 16 16 16 16 17 17 16 16 17
3 4 8 7 3 1 3 1 1 1 4 5 2 5 5 5 6 7 5 3 4 2 2 2 3 3 1 0 0 3 3 3 5 7 12 16 18 22 21 20 19 19 20 21 22 20 17 15 12 12 12 14 16 15 13 13 13 12 11 11 11 9 9 12 14 14 13 13 13 14 13 13 13 14 14 14 14 15 15 15 15 15 15 15 16 16 15 15 15 15 15 16 16 16 16 17 17
4 1 5 6 2 2 4 2 3 3 4 5 4 4 5 6 6 8 6 2 1 1 2 2 3 6 2 2 0 2 3 4 6 9 15 18 21 23 21 20 20 20 21 22 23 20 18 16 14 13 12 14 15 14 13 13 13 12 12 12 11 9 9 11 12 13 12 11 12 12 12 13 13 13 13 13 14 14 14 15 15 14 14 15 15 15 14 14 14 14 14 15 16 17 17 17 17
6 1 1 4 1 3 4 2 3 3 3 3 3 4 6 7 7 7 6 3 1 2 2 2 1 4 1 1 2 2 1 6 7 12 18 19 23 24 22 21 21 21 22 22 22 21 19 15 14 14 13 14 14 13 13 13 12 12 12 11 12 10 9 10 10 11 11 11 12 11 11 12 12 12 13 13 13 13 13 14 14 13 13 14 14 14 14 14 13 13 14 15 17 17 17 17 17
6 3 0 3 2 2 2 1 3 3 3 4 3 5 4 6 6 6 6 2 1 3 3 4 3 1 2 2 1 4 1 7 10 15 19 20 25 24 22 22 21 22 22 21 22 22 19 16 15 15 15 14 13 12 13 13 12 12 11 11 12 11 10 10 9 10 10 11 11 11 11 11 11 12 12 12 12 12 12 13 13 13 13 13 14 13 13 13 13 13 14 16 16 16 16 16 16
4 4 1 2 2 1 3 2 2 3 4 5 4 5 4 6 5 3 5 3 2 6 4 3 1 2 4 2 1 2 1 9 16 18 19 23 26 24 23 21 20 22 22 22 23 23 19 17 16 15 14 14 14 13 13 13 12 11 10 11 12 11 11 12 10 10 11 11 10 10 11 11 11 12 11 11 12 12 12 12 13 12 12 13 13 13 13 13 13 13 14 15 15 15 14 14 14
2 4 2 3 3 1 2 4 3 4 5 4 3 4 5 6 6 2 2 2 1 4 4 2 2 4 4 0 2 1 5 14 20 21 21 25 25 24 23 21 20 20 22 23 24 23 20 18 16 15 14 14 14 13 14 12 11 11 10 10 11 11 13 14 10 10 11 11 11 11 11 10 10 11 11 11 12 12 12 11 11 11 12 12 12 12 12 12 12 12 12 13 13 12 13 13 13
2 3 4 4 2 3 3 3 4 5 6 3 1 3 5 7 5 3 3 3 2 2 4 3 3 5 4 1 3 1 8 18 20 22 24 26 25 24 23 21 21 20 21 23 23 22 19 19 18 15 15 14 13 13 14 13 11 10 10 9 9 10 13 14 9 9 10 10 12 12 11 10 10 10 10 11 11 11 11 11 10 10 12 12 11 10 11 12 11 11 11 11 11 11 11 12 12
3 2 4 2 3 3 2 2 4 4 6 3 3 2 5 6 4 6 5 3 4 4 4 6 5 5 4 2 2 0 9 18 19 23 26 26 25 24 22 21 21 20 22 22 22 20 19 19 19 17 16 14 13 13 13 13 12 10 9 9 8 10 12 14 11 9 10 11 12 12 11 11 11 10 9 10 10 10 9 10 10 9 10 11 10 9 10 11 10 10 10 9 9 9 10 10 10
2 3 4 2 1 2 3 1 3 1 4 5 2 3 5 3 4 6 7 4 6 5 3 5 6 4 3 2 2 1 10 18 20 25 27 26 25 24 23 22 21 22 22 21 21 20 19 19 19 19 16 15 14 14 14 13 12 10 8 8 8 8 11 15 13 10 11 13 12 11 11 11 11 10 9 9 9 8 8 9 10 10 9 9 9 9 10 11 10 9 9 8 8 8 8 8 8
2 3 4 3 2 1 3 1 1 2 4 4 2 5 5 1 4 5 6 7 6 5 0 3 4 2 3 5 4 5 14 20 22 26 28 26 25 24 23 22 21 22 22 21 20 19 19 18 20 20 17 16 15 15 15 14 12 10 8 6 7 7 9 13 12 10 12 13 12 10 10 10 10 9 9 8 7 6 5 7 9 10 9 8 8 9 12 11 9 9 8 7 6 6 6 6 7
2 3 4 2 1 1 3 2 2 2 4 4 1 4 6 2 3 4 4 6 2 2 2 2 2 0 4 7 3 7 20 23 23 26 27 25 24 23 23 22 21 20 20 21 20 19 19 18 19 20 18 17 16 16 15 15 14 11 9 7 6 7 8 9 10 9 11 13 12 10 10 10 9 8 8 7 6 4 3 6 8 10 9 8 8 10 13 12 10 9 8 7 5 4 4 4 5
2 3 4 1 2 3 3 3 3 3 5 5 3 4 9 3 1 1 1 5 4 2 1 3 2 1 4 3 4 10 25 25 25 26 25 24 22 21 20 20 19 17 17 19 19 19 19 18 19 19 19 17 17 16 16 15 14 12 10 8 8 8 8 8 9 9 10 12 12 10 9 9 9 8 8 7 5 4 3 5 7 9 9 9 9 11 14 12 11 10 8 8 6 4 3 3 3
3 3 3 2 3 3 4 6 5 3 2 3 4 4 8 6 3 2 2 4 3 2 3 3 2 2 1 2 2 18 28 26 26 26 25 23 22 21 18 18 19 19 19 19 19 19 19 18 18 19 19 18 17 16 17 16 14 13 11 10 10 9 8 8 8 9 9 11 11 10 9 8 8 8 8 7 6 5 5 6 6 7 7 9 10 12 13 12 11 10 9 8 6 5 3 1 2
3 3 2 3 4 4 4 5 4 3 2 2 4 2 4 6 5 5 3 1 2 3 4 3 2 4 2 4 13 24 28 28 26 25 26 24 23 23 20 19 20 21 21 21 21 22 21 18 18 20 19 19 17 17 17 16 15 14 12 12 12 10 9 8 8 8 9 9 9 9 8 7 7 7 7 6 6 6 7 7 6 6 7 8 10 12 13 12 11 10 9 8 7 6 4 2 1
2 3 1 3 3 4 3 3 3 5 3 2 4 1 2 5 3 4 4 4 2 5 6 2 5 6 2 8 17 24 26 26 25 24 24 23 24 25 23 22 23 24 24 24 24 24 23 20 20 20 20 19 18 17 17 17 16 15 14 13 12 11 10 9 8 8 8 9 9 8 8 7 7 7 6 6 6 6 7 8 7 7 7 8 9 11 12 12 11 10 9 8 8 7 6 3 2
2 3 3 2 0 3 2 1 4 5 4 2 2 3 3 4 2 4 7 6 4 7 9 9 10 9 8 8 15 21 23 23 23 23 23 23 24 25 25 25 26 26 26 26 26 25 24 23 22 21 21 21 20 19 18 17 17 16 15 14 13 12 11 10 9 9 8 9 10 9 8 8 8 7 6 5 5 6 7 7 7 7 7 7 7 9 11 11 11 10 9 8 8 8 7 6 4
1 1 3 3 1 3 3 1 1 2 4 3 1 3 4 3 2 4 10 8 6 6 8 11 9 10 13 13 16 19 20 21 21 22 23 24 24 25 24 24 24 24 25 26 28 27 26 25 24 22 22 21 21 20 19 18 17 17 16 15 15 13 12 11 11 10 9 10 10 10 9 8 8 7 6 4 4 5 6 6 6 6 6 6 6 7 9 10 10 10 9 9 8 8 8 7 6
1 1 2 4 3 3 4 1 2 1 1 3 3 4 3 5 2 2 9 10 3 4 6 8 7 10 16 18 18 16 17 20 22 24 25 25 26 25 24 24 24 24 26 28 29 29 27 27 26 24 22 22 22 21 20 20 19 18 17 16 16 15 14 13 12 12 10 11 11 10 9 8 7 7 6 4 4 4 6 6 6 7 6 6 6 6 8 9 9 9 9 8 8 7 7 7 7
2 2 2 3 4 5 5 4 4 2 5 6 3 1 3 8 5 1 7 9 2 6 3 7 10 12 15 16 16 17 19 22 25 27 27 26 27 26 25 25 26 27 28 29 29 30 29 28 27 26 24 24 24 23 22 21 20 19 18 18 17 16 15 14 14 13 12 12 12 11 9 8 7 6 5 4 4 4 4 5 7 7 7 8 7 7 7 7 8 8 8 7 7 6 6 6 7
1 3 3 3 4 5 6 5 2 1 4 4 2 2 4 8 5 2 8 8 2 4 3 7 10 12 12 12 14 15 18 21 23 24 24 25 25 25 25 25 25 26 28 29 30 30 30 28 28 27 26 25 25 24 24 23 22 21 20 19 18 17 17 15 15 14 14 13 13 12 11 10 9 8 6 5 5 4 5 5 5 7 7 8 8 7 7 7 7 7 7 6 6 6 6 6 7
2 4 4 3 3 5 5 3 1 2 1 1 4 4 3 3 2 2 7 6 3 3 5 5 8 10 10 10 12 14 14 18 22 23 24 24 24 25 25 26 25 26 28 29 30 31 31 29 28 28 27 26 26 26 25 24 23 23 21 20 19 18 17 16 16 15 15 15 14 13 13 12 11 10 8 6 6 5 6 6 4 5 6 6 6 5 6 7 7 7 6 7 7 8 7 8 9
4 3 3 4 3 5 3 2 2 1 1 2 4 3 3 2 1 4 4 2 6 7 6 5 7 10 11 10 11 14 15 19 23 22 21 20 22 26 26 27 27 28 28 28 30 32 31 31 30 28 28 27 27 26 26 25 24 24 22 21 20 19 18 17 17 17 16 16 16 15 14 13 12 11 9 8 7 6 7 7 5 6 6 5 4 4 4 5 6 6 7 8 9 10 9 9 10
4 3 1 4 5 5 3 1 2 1 2 4 5 2 3 3 1 6 2 1 4 7 7 6 7 7 9 10 9 12 15 19 22 21 20 22 24 26 27 28 29 29 29 28 30 31 31 32 31 30 29 28 28 27 26 26 25 24 23 22 22 21 19 19 18 18 18 18 17 17 16 14 13 12 11 10 9 8 8 7 7 6 5 4 4 3 3 4 5 6 6 7 8 9 9 9 9
1 2 2 5 5 4 5 3 1 1 1 3 5 1 3 1 6 6 0 3 4 6 7 6 7 6 6 8 7 8 12 16 19 20 23 25 26 27 28 30 31 31 31 30 30 30 32 32 31 31 30 30 29 29 28 27 26 25 24 23 22 21 20 20 20 19 19 19 19 18 17 16 15 14 12 10 9 9 9 8 7 6 5 4 4 4 4 5 5 6 6 7 8 8 9 9 9
0 2 2 3 4 4 5 3 2 1 2 0 2 2 5 7 10 4 2 4 6 5 6 6 6 6 5 6 6 7 10 13 18 23 26 26 27 28 29 30 32 33 31 31 32 32 33 32 31 31 31 31 31 29 29 28 27 26 25 24 22 21 21 21 21 20 20 20 20 19 19 18 16 15 13 12 10 10 10 10 9 8 6 6 6 6 6 6 7 7 8 8 9 9 10 10 10
1 1 1 1 1 4 5 2 2 1 0 2 3 3 5 8 9 4 2 5 8 7 7 6 6 6 5 6 6 7 9 15 20 23 25 26 27 27 28 29 30 32 32 32 34 34 34 33 32 32 32 32 31 31 30 29 27 26 26 25 24 22 22 22 21 21 21 20 20 20 19 19 17 16 15 13 12 12 12 12 12 10 9 9 8 8 8 8 8 9 9 10 10 11 11 11 12
2 1 1 2 2 4 7 2 3 3 2 3 4 3 5 8 8 4 2 4 7 8 7 7 7 6 6 6 7 7 8 14 18 20 23 25 25 26 28 29 29 32 33 34 35 34 33 33 33 33 33 33 33 32 31 29 28 26 26 26 25 24 23 23 22 22 21 21 21 20 20 20 18 17 16 15 15 14 14 14 14 12 11 11 11 10 10 10 10 10 10 11 11 12 12 13 13
2 2 1 1 3 2 5 3 2 4 0 2 2 2 4 5 4 4 1 5 6 6 7 7 7 7 6 6 6 7 7 9 13 19 24 25 27 29 30 30 31 32 34 35 35 34 35 35 34 34 35 35 34 33 32 31 30 29 28 27 26 26 25 25 23 23 23 22 22 21 21 20 20 19 18 17 17 16 16 15 14 14 13 13 12 12 12 11 12 12 12 12 12 13 14 15 14
1 1 2 3 4 4 3 4 2 2 2 2 2 3 6 7 5 4 2 5 6 6 8 7 6 6 6 6 6 6 7 7 10 19 26 28 29 31 31 31 31 31 33 34 35 35 36 36 36 35 35 35 34 34 33 33 32 31 30 29 28 27 27 26 25 25 25 24 24 23 21 21 21 20 19 19 19 18 17 17 16 15 15 14 14 14 14 13 14 14 13 14 15 15 16 16 15
5 4 4 3 3 4 5 4 2 2 1 3 3 3 7 11 12 7 0 5 6 8 7 5 6 7 6 6 6 7 8 9 13 21 27 28 29 30 30 31 31 32 32 33 34 35 35 36 36 36 36 35 35 34 34 33 32 32 32 31 30 30 30 29 27 27 27 26 26 24 23 23 22 22 21 20 20 20 19 19 19 18 17 16 16 16 16 16 16 15 15 16 18 18 18 17 15
11 9 6 4 4 4 5 4 3 2 1 4 5 5 7 11 15 8 1 3 5 6 6 5 7 6 7 7 7 8 8 11 17 22 23 23 26 29 29 30 31 32 32 33 34 34 35 34 34 36 37 36 35 35 34 33 33 33 33 33 33 33 32 31 30 30 29 28 27 26 25 25 24 23 23 22 21 22 21 21 20 19 19 17 17 17 17 17 17 17 17 16 17 18 19 16 12
8 6 5 5 5 4 4 3 4 1 2 5 5 6 8 10 14 8 1 2 3 6 7 8 8 7 7 7 8 9 10 12 15 17 19 21 25 28 29 29 29 30 31 32 33 35 36 35 35 36 37 37 37 36 35 34 34 33 33 34 34 34 33 33 32 32 31 30 29 28 27 26 26 25 24 24 23 23 23 22 21 20 19 18 17 17 17 17 17 17 17 17 17 18 19 14 11
6 6 5 4 5 4 5 4 4 2 2 4 2 3 9 10 14 11 2 2 5 8 8 9 10 9 7 7 9 10 9 10 11 13 17 20 24 27 29 29 29 30 32 34 35 36 37 37 37 38 38 37 38 38 37 36 36 35 33 33 33 32 33 34 34 33 32 31 30 30 29 27 27 27 26 25 24 24 24 23 22 20 18 18 18 17 17 17 17 17 16 16 17 17 17 13 12
6 5 5 4 4 3 5 2 3 2 2 4 3 2 8 9 14 13 5 6 8 8 9 9 10 9 7 9 10 10 9 9 10 11 15 20 24 26 27 29 31 33 34 36 37 36 36 37 39 39 38 38 38 39 38 38 38 36 35 34 32 31 32 34 34 34 33 32 32 31 30 28 28 27 26 26 25 25 24 24 23 20 18 18 19 20 17 15 15 15 15 17 18 17 16 14 13
5 4 5 4 2 2 4 2 2 1 1 1 1 2 7 7 10 12 7 8 8 7 8 9 8 8 10 10 9 9 10 11 12 11 12 18 21 23 26 29 31 33 34 35 35 35 37 38 40 40 38 38 38 39 39 39 37 36 35 34 33 31 31 32 32 33 33 33 33 32 31 30 29 28 27 26 25 25 24 23 23 22 21 20 21 21 20 17 16 15 15 16 18 18 17 15 15
3 4 6 4 2 3 4 2 2 2 3 0 0 4 6 5 8 10 5 2 6 6 7 8 8 9 9 7 7 9 10 12 12 12 11 13 18 23 27 29 29 31 34 35 36 38 39 40 41 40 39 38 39 39 39 38 36 34 32 31 29 28 28 28 29 31 32 32 32 32 32 31 30 30 29 28 27 25 24 23 22 22 22 22 22 21 20 19 18 18 19 18 18 18 18 17 15
3 4 6 6 6 5 1 2 4 4 4 2 1 2 6 4 6 10 5 3 6 5 5 9 10 8 7 7 9 10 10 11 11 13 11 11 17 23 25 27 28 31 35 37 38 40 41 41 40 40 39 39 40 40 39 38 37 35 33 31 28 27 27 28 30 31 31 30 31 31 30 30 30 29 29 29 28 27 26 24 22 21 22 23 23 23 22 20 19 19 19 21 20 17 18 18 16
4 5 8 7 6 5 2 2 3 1 3 3 1 3 6 5 5 7 5 4 8 6 5 9 9 7 7 8 10 10 10 11 11 12 11 11 16 19 22 27 31 34 38 38 37 39 40 39 38 39 40 41 40 40 39 39 38 37 36 35 33 31 30 30 32 32 30 30 30 29 29 29 28 28 28 28 28 28 27 26 24 23 23 23 23 23 23 22 21 19 19 21 20 16 18 19 17
3 5 10 8 7 7 5 4 2 3 2 3 1 3 3 5 6 6 3 4 8 8 8 9 8 9 9 10 11 11 11 11 9 11 11 11 16 19 24 30 33 37 37 35 37 38 39 39 39 39 40 40 40 40 40 40 40 39 38 37 36 36 35 34 33 31 30 29 28 29 28 28 28 27 27 26 26 27 27 26 25 24 24 23 23 23 22 22 21 21 22 22 18 17 18 18 17
5 5 8 7 6 6 4 5 3 2 2 4 3 2 2 6 6 3 1 4 8 8 9 10 9 10 10 11 12 11 11 10 8 10 10 12 17 24 29 31 32 35 35 34 37 38 37 38 38 38 39 39 39 39 40 41 41 40 39 38 38 37 37 35 33 30 29 28 28 28 28 27 27 26 26 25 24 24 25 25 24 24 25 25 24 23 21 22 20 19 20 19 17 17 17 17 19
4 5 7 4 4 4 3 4 3 1 1 6 5 4 4 5 5 2 1 4 7 7 8 8 9 9 10 9 10 10 9 8 8 9 11 15 21 26 28 28 29 30 31 33 35 34 34 35 35 36 38 38 38 39 40 40 40 40 39 39 38 37 36 34 32 30 28 27 27 28 27 26 26 24 24 24 23 23 22 22 22 23 24 25 25 21 18 20 19 16 16 18 18 15 13 15 18
5 6 6 6 4 4 3 2 3 2 4 6 4 6 4 4 5 4 4 5 6 7 7 7 8 9 9 8 8 8 7 7 7 7 11 17 23 24 23 25 28 28 27 29 31 32 33 34 34 36 37 38 38 38 39 40 40 40 41 40 39 38 35 34 32 31 29 28 28 27 26 25 24 23 23 22 22 22 21 21 21 22 22 22 22 20 19 22 23 21 19 20 20 15 13 15 18
6 5 5 3 1 3 3 3 2 3 5 5 3 2 5 5 6 4 5 5 5 7 7 8 9 9 9 7 6 7 6 6 7 7 9 12 15 17 19 22 25 24 24 26 30 32 33 34 34 36 36 37 37 38 39 40 40 41 42 41 41 39 36 35 35 33 32 31 30 28 26 25 24 23 23 22 22 21 20 20 20 21 22 20 20 23 22 21 21 20 18 19 18 17 17 19 19
5 4 5 4 1 1 2 2 1 4 5 3 2 1 3 7 7 6 8 8 7 8 8 9 10 10 10 7 5 6 6 6 7 7 8 7 8 11 15 19 20 21 23 26 28 30 32 33 34 35 37 38 38 38 39 40 42 43 43 42 41 40 38 37 37 36 35 34 32 30 28 27 26 25 24 24 23 21 20 20 19 20 19 18 20 22 19 17 17 17 17 17 17 17 20 19 15
7 6 6 6 4 4 6 4 1 4 4 2 2 2 3 5 4 9 12 11 10 9 9 10 9 10 10 8 6 7 8 8 8 7 8 7 7 9 13 16 18 20 22 24 26 28 30 31 33 35 36 36 37 38 39 40 42 43 43 42 41 40 39 39 38 37 36 35 33 31 30 30 29 27 26 24 22 20 20 19 19 17 16 17 18 17 15 16 16 14 13 15 15 15 14 12 10
5 5 5 5 5 5 7 5 3 4 3 2 2 2 3 3 3 8 10 9 8 5 6 7 7 9 9 7 7 8 9 9 7 7 8 7 8 11 13 15 16 18 19 21 23 25 27 30 32 34 35 35 36 38 39 40 41 41 41 41 41 40 39 39 38 37 36 34 33 31 30 30 29 27 25 22 20 19 18 17 16 15 14 16 17 16 15 14 11 9 10 11 12 11 9 9 9
3 2 5 4 5 4 3 3 4 4 1 3 2 3 4 4 6 8 6 6 8 7 7 7 9 9 6 6 8 8 9 8 5 6 7 7 8 10 12 14 15 15 16 19 21 23 26 28 30 32 34 34 34 36 38 39 39 39 39 39 39 38 37 37 36 36 35 33 31 30 30 29 28 26 23 21 19 18 16 15 14 14 15 16 17 17 14 11 10 11 9 7 8 9 9 9 9
2 3 6 5 1 6 4 1 1 4 3 4 2 5 5 3 8 10 5 5 8 8 8 7 9 8 5 7 8 7 8 7 6 5 6 6 7 9 10 11 12 12 13 16 18 21 24 26 28 30 31 31 31 33 35 36 36 36 36 36 36 36 35 35 35 34 33 31 30 29 28 27 26 24 21 19 17 16 15 14 14 14 15 15 16 17 14 12 13 13 11 10 10 10 10 10 9
6 5 7 3 3 3 3 1 2 2 4 4 1 5 5 2 6 6 3 7 11 10 7 5 7 6 6 8 8 7 7 7 6 6 6 6 7 9 9 9 9 10 11 12 13 16 20 23 25 27 29 30 30 30 31 33 33 34 34 34 33 33 34 33 33 32 31 30 29 28 27 26 25 22 19 18 16 16 15 15 14 14 13 13 14 15 13 11 12 11 10 10 11 11 10 10 10
5 6 6 5 3 3 2 3 3 3 4 4 4 4 4 6 7 3 2 8 11 11 8 6 7 7 6 8 8 7 7 6 6 6 5 5 7 8 8 6 6 7 8 9 10 11 14 17 20 23 25 27 28 28 29 29 31 31 32 32 31 31 31 31 30 29 29 29 28 27 26 25 23 21 19 17 17 16 16 15 14 14 13 13 14 14 13 12 12 11 8 7 9 10 9 9 9
3 3 4 2 2 4 4 3 4 4 4 4 3 4 4 7 7 5 7 9 9 9 8 7 8 8 6 6 6 6 6 6 6 6 5 5 6 7 5 5 5 5 6 7 8 9 11 12 15 18 20 22 24 25 26 27 28 29 29 29 29 29 29 28 28 28 28 28 27 26 26 24 22 20 18 17 17 16 16 15 14 14 14 14 15 15 14 14 13 12 10 8 10 10 9 9 8
3 4 5 3 1 2 2 1 2 4 4 3 1 4 6 5 5 10 11 10 10 10 10 9 7 7 6 6 6 6 6 6 6 6 6 5 7 6 4 4 5 5 6 6 7 8 9 10 12 13 15 17 20 22 24 25 26 26 26 26 27 27 27 27 27 27 27 26 26 25 24 22 20 19 18 17 17 16 15 15 15 15 15 15 16 16 15 15 15 14 12 11 12 12 12 11 10
7 5 5 6 4 4 3 3 2 3 3 4 3 4 8 5 5 9 11 11 11 10 8 7 6 7 7 5 6 6 6 7 7 6 6 5 6 5 4 4 5 6 6 6 7 8 8 9 11 12 13 14 16 18 20 21 22 23 24 24 24 25 25 25 25 25 25 24 23 22 21 20 19 18 18 17 16 15 15 15 15 15 15 15 15 16 16 16 16 15 13 13 13 13 12 11 11
Wind_Direction
357 355 352 346 339 325 343 47 83 321 70 79 302 103 239 238 216 157 126 158 144 231 226 132 126 123 130 151 161 164 140 164 165 134 202 203 149 159 165 163 159 153 146 140 137 137 135 138 150 142 134 135 126 115 114 116 112 106 98 99 99 99 94 91 94 89 89 89 87 88 88 86 85 84 84 84 84 85 88 91 90 87 85 83 82 84 85 83 82 81 80 80 79 80 82 82 81
360 356 352 341 354 6 296 67 87 328 47 63 274 158 252 301 150 175 174 199 199 178 159 114 106 96 57 92 113 114 70 348 175 160 148 145 148 159 163 162 158 152 146 143 140 139 141 146 156 151 138 138 130 121 119 121 120 115 108 104 102 101 96 95 101 97 92 90 88 91 91 88 87 86 86 86 87 87 90 94 92 88 86 85 83 84 85 83 81 80 80 81 81 82 84 84 82
360 357 351 321 353 36 72 40 83 67 62 197 272 244 253 157 186 203 207 212 180 140 133 113 94 87 42 57 75 98 141 326 166 169 126 149 154 159 163 162 157 152 147 147 146 144 145 153 164 153 138 141 135 126 123 127 123 122 116 107 105 105 106 105 105 102 95 94 94 95 93 90 89 89 89 89 89 90 93 97 96 90 88 86 84 84 84 83 81 79 79 81 83 84 86 86 85
2 360 347 317 20 35 66 39 123 116 88 214 279 271 237 180 196 222 222 182 155 120 71 91 65 21 53 87 127 100 180 200 168 162 142 162 168 162 161 160 157 152 148 149 149 148 147 153 161 149 142 143 139 130 125 128 125 124 121 117 116 115 119 110 103 101 98 100 101 100 96 92 93 93 92 91 90 91 94 98 98 94 91 88 85 83 83 83 82 80 79 80 84 85 86 86 87
8 13 2 54 81 34 96 67 120 98 216 191 222 268 241 199 190 189 183 171 174 140 15 101 84 299 33 129 160 146 202 158 174 178 148 167 172 161 159 159 158 151 149 150 150 150 149 155 154 147 146 146 144 134 126 131 130 128 126 122 114 111 120 114 105 102 104 108 103 102 99 93 95 95 93 93 94 92 95 98 98 96 93 91 86 84 84 84 83 82 80 81 84 85 86 86 87
15 28 25 63 88 98 120 95 143 204 232 174 161 254 229 204 187 162 156 212 248 257 179 122 147 156 65 306 192 167 177 124 171 184 157 167 170 160 159 160 157 152 151 151 151 151 151 156 153 148 149 150 148 134 129 134 132 131 133 128 112 100 110 115 111 106 110 109 101 102 100 96 97 97 98 99 98 95 97 100 100 98 95 94 90 87 86 85 85 84 82 83 85 86 87 87 88
15 348 18 62 62 33 108 160 190 234 239 174 179 232 209 193 180 152 154 214 279 282 165 166 169 124 103 299 110 180 190 156 166 176 168 168 166 160 161 160 156 154 154 154 154 152 154 158 156 157 154 153 151 137 134 136 134 136 136 137 126 108 104 111 110 106 106 103 101 107 103 100 100 99 100 100 99 97 99 101 100 98 97 97 93 90 87 86 86 86 86 88 90 90 88 86 85
17 17 4 85 54 26 93 163 214 217 232 219 216 232 207 176 164 151 169 184 168 249 126 179 213 98 138 23 124 264 203 162 168 174 172 168 164 161 162 161 158 156 157 159 157 155 157 156 154 158 155 157 158 147 141 138 137 138 133 139 136 120 110 109 107 105 103 103 103 106 103 101 100 97 97 97 97 98 99 102 102 100 102 100 95 93 90 87 87 87 90 92 93 92 87 84 83
19 31 96 86 100 42 34 292 261 241 250 265 256 245 212 158 153 148 168 197 182 170 152 201 242 132 164 60 219 293 34 165 170 171 173 168 164 162 164 163 159 158 160 162 160 159 158 155 150 151 153 159 163 154 146 142 140 137 132 138 140 130 125 118 113 114 110 111 110 106 105 105 103 99 100 99 98 101 101 106 106 103 104 102 98 97 93 90 89 91 93 95 94 92 88 86 84
29 23 137 83 102 59 329 283 260 262 252 254 257 235 179 146 153 144 154 184 177 151 183 239 360 113 134 110 251 328 132 166 162 168 173 169 164 163 165 165 162 159 161 162 161 162 160 157 151 150 154 158 162 156 150 148 144 141 137 141 145 140 134 126 125 133 123 119 119 115 115 114 113 111 110 108 106 104 101 107 109 107 106 105 102 99 96 94 94 95 97 98 97 94 91 87 85
37 359 98 86 76 135 247 245 267 265 268 287 277 228 169 143 139 133 108 148 168 140 188 258 77 120 96 92 252 329 166 163 164 170 172 169 167 166 166 166 165 162 161 162 162 163 162 162 159 157 157 159 161 158 152 149 150 151 149 150 154 155 145 133 135 147 137 130 129 127 127 124 125 123 118 116 114 108 106 108 110 112 112 108 104 101 102 101 100 101 104 103 100 95 91 89 87
86 345 62 93 137 187 208 223 275 282 301 315 229 223 161 132 129 166 155 151 160 142 212 212 151 131 84 316 264 329 165 168 174 174 171 171 169 168 168 166 166 165 163 163 164 164 166 166 166 166 162 162 161 158 154 150 160 164 156 157 159 165 159 143 140 153 149 142 139 138 137 132 132 131 125 124 123 119 120 119 116 118 115 111 107 108 112 110 107 106 108 107 101 96 92 90 87
111 121 87 129 179 168 171 194 280 314 319 272 194 203 142 134 169 185 151 136 152 151 239 208 149 102 102 251 271 336 178 177 178 174 172 172 171 171 170 167 166 166 167 168 168 168 168 169 171 173 170 165 162 163 163 160 169 175 167 168 165 166 165 155 150 156 158 150 143 145 142 138 138 137 134 134 135 132 134 129 120 120 118 116 116 120 120 116 113 110 110 107 101 98 93 88 84
127 146 114 154 71 110 163 208 284 307 288 260 206 163 144 143 189 168 132 145 193 183 254 193 150 110 119 239 280 252 192 184 177 174 173 172 173 173 172 170 168 168 171 173 173 173 171 171 174 178 176 169 168 171 173 174 176 180 179 181 175 167 165 166 165 158 158 156 150 150 147 144 143 141 141 141 142 139 139 137 127 124 122 121 123 129 130 125 122 117 115 110 105 101 95 91 84
127 132 92 115 49 7 193 246 211 148 248 243 184 153 141 157 146 137 151 165 218 231 145 149 155 165 174 174 230 221 187 183 176 173 172 173 175 175 177 173 171 171 173 177 177 178 175 173 176 179 179 173 174 178 180 184 186 187 187 190 184 170 165 171 174 162 159 165 164 160 157 156 155 151 151 151 151 148 141 146 141 130 127 129 131 139 141 138 135 130 125 119 112 104 93 88 86
108 109 72 99 147 241 208 206 126 122 253 234 218 143 136 244 141 136 204 156 164 243 140 177 187 197 175 169 244 201 177 178 175 172 171 172 174 176 179 177 175 174 176 181 181 183 180 178 178 178 179 176 178 181 184 189 192 195 196 198 187 172 166 169 172 166 165 173 176 172 169 170 171 169 168 168 168 166 139 148 153 141 139 144 144 149 150 149 148 144 140 136 126 111 91 81 81
75 82 82 107 177 206 199 193 179 172 256 263 271 177 154 209 276 144 164 96 109 183 243 250 235 41 178 205 325 174 170 174 173 170 168 169 171 172 177 178 177 176 179 184 184 185 184 183 181 178 179 179 179 182 185 189 193 197 200 200 186 178 173 170 172 171 169 174 181 181 179 179 181 182 182 184 182 176 144 143 158 155 156 159 156 157 159 160 160 159 155 151 147 136 113 93 79
56 80 120 188 178 197 187 188 198 179 284 270 254 223 172 181 184 168 95 61 72 147 277 302 308 335 247 278 135 159 164 169 171 169 166 168 171 170 175 179 179 181 183 185 187 187 186 186 185 181 180 181 180 182 187 189 192 196 198 195 187 183 179 176 178 177 176 177 181 182 182 183 181 180 181 186 185 177 155 145 158 166 169 167 165 165 167 170 171 171 168 166 166 161 158 141 102
86 108 138 208 191 216 207 190 192 194 291 247 240 255 199 200 160 158 176 197 103 157 254 328 304 298 22 122 146 155 160 166 173 172 170 171 174 175 177 181 185 186 186 187 187 188 188 187 188 186 183 183 183 182 185 188 190 191 190 189 186 186 184 182 181 181 184 181 181 180 179 180 177 176 177 180 181 175 162 153 156 163 167 166 168 171 174 178 179 180 181 183 182 178 180 186 178
127 124 158 230 214 256 258 229 242 248 267 248 240 165 190 238 161 158 176 166 156 194 220 209 229 234 128 137 149 154 159 167 177 177 176 177 180 181 181 184 189 190 189 190 188 189 191 189 190 190 186 186 187 186 186 187 188 188 187 187 187 187 188 189 188 187 186 184 184 179 177 174 173 175 176 179 179 175 169 162 159 159 162 164 167 174 180 183 184 187 191 195 197 197 194 200 228
106 135 176 222 243 278 281 262 287 296 302 286 231 132 189 236 177 166 144 139 233 237 219 203 205 190 160 156 156 158 160 170 182 184 183 182 185 188 189 190 193 194 193 193 191 191 193 193 193 192 191 190 190 191 190 190 189 189 189 189 190 191 192 193 194 192 187 185 182 178 174 169 168 169 170 176 179 181 179 172 168 166 166 167 168 176 183 187 190 192 197 203 207 212 215 219 226
80 172 185 202 153 265 276 262 274 321 319 300 172 171 196 170 160 175 157 176 228 239 224 209 200 173 164 162 162 163 164 175 185 190 190 187 189 191 193 195 195 198 198 196 195 195 195 197 197 194 193 193 195 196 195 195 194 193 192 192 193 194 196 198 199 197 192 185 181 179 175 170 168 167 167 171 180 190 194 189 182 179 179 180 179 182 188 191 195 198 202 209 215 222 229 233 236
176 231 206 204 177 246 271 289 236 194 220 237 213 216 165 145 200 182 179 204 231 289 243 197 183 171 164 158 160 167 171 181 189 194 194 191 192 192 194 196 197 200 202 202 199 198 199 199 201 199 196 196 199 201 201 200 199 199 197 195 196 197 198 201 203 202 199 193 188 187 184 184 180 177 178 178 186 194 199 203 202 199 197 196 194 192 195 195 197 202 206 213 220 227 235 240 243
141 189 209 218 210 238 261 272 265 208 200 223 227 190 152 180 197 112 209 222 314 328 277 158 150 154 158 158 165 175 179 185 192 196 197 196 196 195 196 197 199 201 204 205 203 202 202 202 204 204 202 200 201 204 206 205 205 204 202 201 201 200 202 206 208 208 207 205 202 201 201 201 198 197 196 192 195 200 207 214 215 211 209 209 207 202 202 201 202 207 212 219 225 235 244 246 247
111 176 192 247 251 257 272 265 243 178 226 238 194 209 219 199 166 136 231 237 296 348 57 122 133 142 161 171 177 180 182 189 193 196 199 201 200 199 199 200 201 202 206 207 206 205 205 205 206 207 208 205 204 206 208 210 209 209 208 207 206 204 208 211 212 213 214 214 213 213 213 213 213 212 209 209 211 216 224 228 224 212 209 214 214 213 213 211 211 215 223 232 244 257 265 263 260
196 175 202 241 271 283 290 293 69 89 275 175 183 236 277 218 155 241 247 224 189 95 90 123 132 147 173 181 185 184 186 192 193 195 198 201 201 201 201 202 203 205 208 208 207 208 207 207 208 210 212 210 210 209 211 213 213 214 213 213 213 212 213 214 216 219 221 222 223 222 222 222 222 221 221 225 227 230 234 238 234 211 205 213 215 217 217 219 223 230 244 255 264 272 278 277 276
167 169 232 246 283 293 278 293 321 323 127 147 185 235 293 297 230 244 271 195 151 119 116 151 152 169 182 185 192 190 192 195 195 195 196 198 199 202 203 202 205 208 211 211 210 209 209 209 210 212 214 215 215 214 215 216 217 218 218 218 218 218 218 218 220 224 227 229 231 231 231 231 229 228 229 234 239 238 239 242 240 229 222 221 217 214 215 221 229 242 260 269 274 277 279 281 283
157 170 219 282 302 296 282 343 315 333 119 162 156 186 290 350 255 229 242 167 152 137 149 171 180 189 188 189 194 194 201 200 196 195 196 199 201 202 203 203 206 209 211 213 213 211 210 211 211 213 215 217 219 219 220 219 221 222 222 223 222 223 223 223 225 227 231 233 235 236 238 239 236 235 234 239 245 244 244 243 242 243 242 242 240 232 236 236 238 250 263 273 282 283 281 284 289
162 139 152 288 328 315 303 2 23 44 116 173 143 166 291 261 236 247 181 143 123 132 165 183 194 200 197 198 198 202 208 201 197 202 204 205 206 205 206 207 207 210 213 214 215 214 213 214 214 214 216 218 220 222 223 224 225 225 225 226 225 225 225 226 229 231 235 236 237 239 241 242 242 241 240 244 248 247 246 244 246 252 255 265 266 263 263 264 266 267 273 282 289 289 287 289 294
8 61 117 296 348 322 306 1 11 115 133 142 144 238 270 242 238 252 77 138 121 141 189 197 202 204 203 204 205 212 211 203 205 209 209 209 210 210 210 211 210 212 214 215 217 218 217 217 217 217 217 219 221 222 225 227 227 228 228 227 227 228 227 229 232 234 238 238 238 239 241 243 243 243 243 247 251 250 247 246 253 258 264 272 273 278 276 277 283 282 285 290 293 294 293 295 297
91 78 91 79 181 270 301 358 34 99 104 48 120 226 268 260 250 228 178 155 149 183 206 202 208 209 206 208 211 218 215 212 216 216 214 214 213 214 215 214 213 214 215 216 219 221 220 220 220 220 220 220 221 222 225 227 229 230 230 230 230 231 231 232 233 235 237 237 238 238 239 241 242 243 245 247 251 253 253 254 258 262 266 268 271 277 279 282 287 289 292 293 294 295 294 295 296
49 162 276 13 172 262 314 307 162 158 328 46 128 222 275 271 264 252 226 167 171 199 211 211 214 213 210 213 215 221 225 223 227 226 222 220 217 218 219 218 217 216 216 219 221 221 221 222 222 223 223 223 223 224 226 228 231 232 232 233 234 235 235 235 236 237 237 237 237 237 238 240 242 245 246 248 250 253 257 259 264 267 267 267 268 271 276 284 290 293 294 292 294 294 294 294 292
11 112 188 306 167 238 318 304 203 151 122 4 132 206 274 277 284 331 2 164 182 211 221 221 218 221 219 218 222 223 230 232 232 232 228 224 221 221 221 221 221 221 221 221 221 221 222 223 224 224 226 226 226 227 228 230 232 234 235 236 237 238 238 239 239 239 238 237 238 238 239 240 243 246 247 249 251 253 258 263 267 269 268 269 270 272 274 279 283 287 290 291 291 292 294 294 296
9 67 195 236 191 196 244 268 287 105 152 243 160 192 254 268 276 319 21 150 174 219 229 229 224 230 232 228 233 230 228 232 230 230 228 225 223 223 223 223 223 224 224 224 224 223 224 225 225 226 227 228 229 230 231 232 234 236 238 239 239 240 241 242 242 241 241 240 240 241 241 243 244 247 248 250 251 253 259 264 266 265 266 268 269 274 276 273 274 277 285 292 292 294 296 297 303
171 188 197 230 216 213 218 236 267 105 160 245 189 214 254 269 272 271 146 147 177 223 233 239 235 230 234 234 235 234 232 236 234 231 229 226 225 225 225 226 225 226 226 227 226 226 226 226 226 227 228 229 231 232 233 234 235 237 238 240 240 241 242 242 243 243 243 242 243 244 245 246 246 248 249 250 251 252 256 261 263 263 264 263 262 265 267 268 269 269 277 287 291 292 291 296 309
178 183 178 169 191 234 230 242 278 145 136 268 227 231 240 252 264 261 156 144 188 239 254 247 242 229 229 232 233 237 234 238 239 235 234 230 228 228 227 227 227 227 228 228 228 227 227 226 225 227 228 229 230 230 231 231 232 234 235 237 238 239 240 241 243 244 244 244 245 246 246 247 248 250 251 252 253 253 255 259 262 264 264 262 260 260 261 264 267 267 267 271 280 285 283 290 308
158 157 170 178 186 245 244 240 299 120 143 265 239 243 253 251 264 264 142 124 216 245 249 242 244 235 227 229 233 237 235 242 247 243 238 233 232 231 229 228 228 228 229 228 228 228 227 226 225 226 228 228 228 227 227 226 227 228 230 232 234 236 238 240 243 244 245 245 246 246 247 248 249 250 252 253 254 255 257 258 260 262 264 265 267 270 271 268 265 265 265 266 273 280 281 289 301
142 154 168 195 194 237 249 225 307 349 161 267 279 250 262 262 268 266 173 172 237 227 228 239 241 237 232 233 238 239 243 254 257 248 238 232 232 231 229 227 226 226 227 227 228 228 228 227 227 228 228 227 227 228 227 227 227 227 227 230 232 234 236 238 241 243 245 246 247 247 247 248 248 249 250 252 254 256 257 258 260 262 264 267 269 272 273 270 266 263 265 270 274 275 279 288 298
156 155 148 193 208 239 262 253 348 8 172 272 341 280 265 261 261 262 217 210 242 223 212 227 234 236 232 228 236 240 247 259 256 245 236 231 231 230 227 225 225 226 228 228 227 227 227 227 227 228 227 227 228 228 228 229 230 230 230 232 233 233 237 240 242 244 245 246 248 248 247 247 247 247 248 251 253 256 258 259 261 262 260 260 263 266 266 265 266 267 269 273 274 275 281 287 286
163 154 149 200 218 185 232 262 345 29 128 264 352 308 272 266 269 269 232 217 252 244 224 232 230 228 231 230 235 234 236 247 251 247 235 229 229 227 224 224 224 224 226 227 226 226 226 227 227 227 226 226 228 229 230 231 232 233 234 235 236 236 239 242 243 245 245 245 246 247 246 246 246 246 246 248 250 254 256 259 262 261 258 256 259 265 266 263 260 261 262 264 267 267 268 273 273
189 174 162 171 186 195 213 269 312 351 17 359 41 323 284 256 262 267 260 254 271 256 240 253 245 231 240 256 253 233 230 239 245 247 238 223 222 225 225 225 224 222 224 226 224 224 226 227 227 226 225 225 227 230 231 231 230 230 230 230 232 234 236 237 238 240 240 241 243 245 245 245 245 246 246 246 247 249 252 254 258 260 260 258 257 259 264 267 266 262 259 257 259 261 264 270 271
219 205 174 166 179 198 227 15 26 26 343 308 128 297 279 273 257 253 273 314 272 252 227 245 250 242 239 252 250 238 236 239 239 246 244 226 224 227 228 226 223 223 226 227 225 225 226 227 226 225 225 225 227 228 229 229 227 225 223 221 221 223 226 229 232 235 235 237 240 243 246 248 247 247 247 247 247 248 249 250 252 254 257 257 256 256 256 257 260 264 268 264 258 260 266 264 263
220 213 176 170 165 163 164 86 74 130 267 296 124 206 264 303 276 251 278 295 272 273 256 249 252 250 235 234 243 238 237 239 238 245 245 233 229 227 227 227 223 225 229 228 226 226 226 225 225 225 225 225 225 226 227 227 226 223 222 221 221 221 224 229 233 235 236 237 241 244 246 248 249 250 249 249 249 249 249 249 251 254 256 258 259 259 257 256 258 261 267 267 261 262 265 260 259
224 210 166 171 166 172 183 147 163 218 260 312 36 166 254 284 258 246 285 295 281 276 267 261 252 244 237 233 241 238 237 237 237 245 244 235 231 227 229 230 228 229 230 227 226 226 225 224 224 225 225 225 224 224 225 226 225 223 222 222 224 225 227 231 234 236 237 238 241 244 245 247 249 251 251 251 251 251 251 250 252 256 256 257 258 256 257 259 259 257 258 260 259 258 261 264 267
232 195 150 165 164 168 164 144 199 265 357 290 267 142 230 266 263 271 288 256 266 269 262 259 249 244 238 235 240 241 243 244 240 247 249 242 236 233 234 235 235 234 231 227 227 227 225 224 223 223 224 224 223 223 224 225 225 224 223 222 224 226 229 232 235 236 237 237 239 241 243 245 247 250 252 253 253 251 250 248 250 253 253 254 254 253 258 259 255 256 260 257 255 256 259 263 267
219 142 104 81 82 83 98 140 176 60 325 244 217 177 227 268 261 249 265 242 246 259 263 255 247 247 244 242 246 247 251 253 244 245 250 250 246 243 242 241 241 238 233 229 228 226 224 223 222 222 224 224 223 223 223 224 224 223 223 223 224 226 228 230 232 233 234 234 236 238 240 242 245 248 251 253 254 253 250 246 246 248 252 255 254 252 257 261 254 250 254 251 248 257 267 264 264
131 109 81 60 55 51 59 92 94 92 266 258 217 185 196 276 266 211 214 222 208 222 252 266 261 258 252 243 244 250 252 254 252 253 256 257 256 254 250 245 243 240 235 230 228 226 224 222 221 222 223 224 223 222 222 223 223 223 223 223 224 226 226 226 227 228 229 230 232 234 236 240 243 247 250 252 254 254 251 247 243 244 248 251 253 251 249 253 251 244 248 252 247 250 265 263 262
116 112 109 100 41 40 40 12 68 191 253 280 282 178 163 237 260 235 249 257 221 206 220 248 256 260 260 248 243 253 253 257 262 263 264 266 266 260 250 244 243 238 232 228 226 225 223 221 220 221 222 223 223 222 221 222 223 223 224 224 225 226 225 225 226 227 228 228 230 232 234 238 242 244 246 248 251 252 250 247 244 243 242 242 248 249 246 251 254 248 250 253 245 244 255 257 259
125 126 134 135 127 91 213 240 186 226 247 252 247 168 191 238 250 255 267 268 248 224 213 229 240 252 263 261 258 263 260 258 262 263 265 268 267 258 248 243 241 235 229 227 225 223 222 221 219 219 221 222 221 221 220 221 222 223 224 224 225 226 226 227 228 229 230 231 231 232 233 236 239 241 243 246 250 251 249 248 246 244 240 240 247 249 249 256 258 254 254 252 245 249 255 256 257
159 155 157 160 157 175 209 212 208 245 247 247 228 204 256 273 259 237 238 241 240 228 224 232 240 250 260 272 279 277 274 264 258 263 265 263 261 262 257 248 242 237 232 228 225 223 222 221 219 220 222 222 220 221 220 221 222 224 225 225 225 226 225 227 229 230 231 232 233 234 237 240 241 243 246 250 253 252 251 250 248 246 243 243 246 248 251 252 252 254 256 256 256 255 253 251 254
175 153 139 170 181 180 198 195 199 225 237 280 268 211 205 206 251 238 230 251 268 256 245 248 256 259 262 283 286 274 273 265 254 256 259 260 262 266 265 259 251 245 239 233 228 225 222 221 221 221 222 221 220 221 221 221 223 224 225 225 226 226 226 227 229 231 232 233 234 236 239 242 244 247 250 253 254 251 249 248 245 243 242 240 241 243 241 236 240 248 246 249 249 241 239 248 255
212 123 128 202 205 145 135 178 169 154 201 264 228 226 217 201 275 271 237 270 288 275 269 263 260 265 275 284 274 265 267 269 270 270 271 275 272 269 268 266 262 254 245 238 232 227 224 222 222 222 223 222 221 221 221 222 223 224 225 226 226 226 226 227 229 231 232 234 236 238 241 244 247 249 251 251 250 246 243 243 240 237 234 233 236 238 230 224 234 236 229 230 227 224 240 251 246
159 141 180 216 156 107 106 241 31 88 213 249 196 243 283 315 286 277 248 270 279 258 253 254 258 274 296 277 267 268 272 281 289 276 273 282 283 279 273 267 264 255 246 241 237 232 229 226 225 224 224 223 222 223 223 223 224 224 225 226 226 226 226 228 229 231 233 235 237 239 242 245 247 248 248 247 244 240 237 236 233 230 229 228 231 229 224 234 245 238 232 234 234 238 245 245 250
140 185 195 154 73 94 109 195 351 64 227 267 243 241 271 258 262 292 283 251 260 258 255 266 275 279 276 268 266 275 282 290 290 273 267 276 280 283 280 272 264 255 249 247 244 239 234 230 229 226 225 224 223 224 224 224 224 224 225 225 226 227 228 230 231 233 235 235 236 238 239 242 244 244 243 240 236 232 231 230 226 222 219 218 221 220 222 239 246 243 243 238 237 245 248 252 263
142 185 184 141 155 199 141 158 186 177 220 276 310 287 264 213 224 308 287 227 240 261 273 276 269 255 247 261 271 284 295 299 293 284 279 275 278 285 282 269 260 251 249 250 247 243 237 234 232 230 230 229 227 226 225 225 226 226 227 228 228 229 230 231 233 234 235 235 235 237 237 239 240 239 236 232 229 226 223 220 216 211 208 210 213 216 225 233 232 239 248 234 230 234 230 235 245
64 132 171 150 140 176 167 162 167 164 199 246 306 318 271 221 202 197 231 237 233 253 271 261 252 247 240 254 271 287 295 293 288 284 280 274 277 284 272 246 243 236 237 241 240 242 241 238 235 232 232 231 228 227 226 226 227 227 228 229 229 230 230 232 232 232 233 233 234 235 235 236 236 233 229 224 220 218 215 213 212 211 211 213 214 217 224 225 224 235 246 237 228 222 215 222 230
124 137 173 178 96 128 155 148 131 140 173 199 260 290 264 247 194 187 213 238 236 242 254 243 240 256 257 258 269 281 287 284 279 272 270 271 274 272 243 217 220 218 224 229 232 236 236 234 233 231 230 228 227 226 225 225 226 225 226 226 226 227 228 228 229 229 230 231 232 231 231 231 229 224 217 212 209 210 212 213 213 214 214 215 216 217 219 219 224 236 241 234 227 227 231 234 229
164 162 181 177 142 119 152 216 210 117 157 175 167 261 267 252 197 191 200 216 227 239 247 236 237 257 263 268 267 268 278 279 277 272 267 269 272 264 230 210 208 210 215 217 219 221 222 224 225 224 225 225 225 223 222 223 222 222 222 223 223 224 224 224 224 225 225 226 226 225 223 220 215 209 204 204 206 207 209 212 211 210 209 210 212 213 214 217 226 235 232 226 224 227 230 223 213